Home > Weather > Nordkirchen > Past weeks

Flag for Germany Past Weather in Nordkirchen, North Rhine-Westphalia, Germany — Yesterday and Last 2 Weeks

Now
59 °F

Sunny.


Feels Like: 60 °F
Forecast: 49 / 72 °F
Wind: 3 mph from Northwest

Location: Dortmund / Wickede

Current Time: Aug 29, 2016 at 10:04:43 PM

Latest Report: Aug 29, 2016 at 9:20 PM


Visibility: 10 mi

Pressure: 30.18 "Hg

Humidity: 72%

Dew Point: 50 °F

Location of NordkirchenLocation

Past Weather in Nordkirchen — Graph

°F

Nordkirchen Temperature Yesterday

Maximum temperature yesterday: 90 °F (at 12:50 PM)
Minimum temperature yesterday: 66 °F (at 6:20 AM)
Average temperature yesterday: 77 °F

High & Low Weather Summary for the Past Weeks

 TemperatureHumidityPressure
High91 °F (Aug 25, 3:50 PM)88% (Aug 15, 5:20 AM)30.36 "Hg (Aug 15, 5:20 AM)
Low48 °F (Aug 16, 6:20 AM)16% (Aug 25, 3:50 PM)29.80 "Hg (Aug 18, 2:50 PM)
Average70 °F55%30.05 "Hg
* Reported Aug 14 8:20 PM — Aug 29 8:50 PM, Nordkirchen, Weather by CustomWeather, © 2016

Note: Actual official high and low records may vary slightly from our data, if they occured in-between our weather recording intervals... More about our weather records

Advertising

Nordkirchen Weather History for the Previous 24 Hours

Scroll right to see more
 ConditionsComfort  
Time TempWeatherWind HumidityBarometerVisibility
8:50 PM
Mon, Aug 29
63 °FPassing clouds.5 mph64%30.18 "HgN/A
8:20 PM64 °FPassing clouds.10 mph60%30.18 "HgN/A
7:50 PM66 °FScattered clouds.9 mph60%30.15 "HgN/A
7:20 PM68 °FScattered clouds.9 mph53%30.15 "HgN/A
6:50 PM68 °FScattered clouds.10 mph53%30.15 "HgN/A
6:20 PM68 °FScattered clouds.9 mph53%30.15 "HgN/A
5:50 PM68 °FScattered clouds.9 mph56%30.15 "HgN/A
5:20 PM68 °FScattered clouds.9 mph56%30.12 "HgN/A
4:50 PM68 °FScattered clouds.9 mph56%30.12 "HgN/A
4:20 PM68 °FScattered clouds.8 mph56%30.12 "HgN/A
3:50 PM68 °FScattered clouds.8 mph56%30.12 "HgN/A
3:20 PM66 °FBroken clouds.8 mph68%30.12 "HgN/A
2:50 PM66 °FScattered clouds.6 mph64%30.12 "HgN/A
2:20 PM68 °FBroken clouds.6 mph64%30.12 "HgN/A
1:50 PM66 °FBroken clouds.6 mph68%30.12 "HgN/A
1:20 PM64 °FBroken clouds.6 mph78%30.09 "HgN/A
12:50 PM64 °FBroken clouds.7 mph78%30.09 "HgN/A
12:20 PM64 °FPartly sunny.8 mph78%30.09 "HgN/A
11:50 AM63 °FPartly sunny.8 mph83%30.09 "HgN/A
11:20 AM63 °FDrizzle. Broken clouds.8 mph83%30.09 "HgN/A
10:50 AM61 °FDrizzle. Broken clouds.9 mph88%30.09 "Hg4 mi
10:20 AM61 °FScattered showers. Partly sunny.7 mph88%30.07 "Hg4 mi
9:50 AM61 °FLight rain. Partly sunny.9 mph83%30.07 "Hg3 mi
9:20 AM61 °FScattered showers. Partly sunny.9 mph83%30.07 "HgN/A
8:50 AM61 °FSprinkles. Partly sunny.9 mph83%30.04 "HgN/A
8:20 AM63 °FBroken clouds.13 mph73%30.04 "HgN/A
7:50 AM63 °FPassing clouds.14 mph73%30.04 "HgN/A
7:20 AM61 °FPassing clouds.12 mph77%30.04 "HgN/A
6:50 AM61 °FPassing clouds.9 mph72%30.01 "HgN/A
6:20 AM61 °FPassing clouds.8 mph72%30.01 "HgN/A
5:50 AM61 °FPassing clouds.9 mph72%30.01 "HgN/A
5:20 AM61 °FClear.10 mph72%30.01 "Hg10 mi
Weather by CustomWeather, © 2016

See weather overviewHow to use our weather pages